Location: Hartmans Corners
(42.7079°N, 73.9223°W)
Time: 01:04:51
(UTC+00:00)

Daily predictions for brighter satellites

Satellite Brightness Start Highest point End
(mag) Time Altitude Azimuth Time Altitude Azimuth Time Altitude Azimuth
Cosmos 1503 Rocket 4.0 00:32:54 10° S 00:38:01 68° ESE 00:43:12 10° NNE
Helios 1A Rocket 3.4 00:34:48 10° S 00:38:54 65° WSW 00:43:02 10° NNW
SAR-Lupe-4 4.3 00:39:01 10° N 00:42:34 58° WNW 00:46:04 10° SSW
USA 290 2.2 00:39:26 10° NNW 00:42:41 87° ENE 00:45:53 10° SSE
CZ-4 R/B 4.2 00:40:36 10° SW 00:43:16 17° W 00:45:54 10° NW
Ariane Rocket 3.3 00:38:23 10° SE 00:43:16 52° ENE 00:48:11 10° N
COSMOS 2406 4.3 00:44:47 10° N 00:49:45 30° NE 00:54:42 10° ESE
Intercosmos 25 Rocket 3.7 00:44:44 10° N 00:50:08 83° W 00:53:43 10° S
Cosmos 1933 3.3 00:50:10 10° S 00:54:11 76° E 00:58:13 10° NNE
Resurs 1-3 3.8 00:50:55 10° SSE 00:55:13 58° ENE 00:59:32 10° N
Tianhe-1 3.2 00:54:57 10° SSE 00:55:50 11° SSE 00:56:12 11° SE
Cosmos 1666 Rocket 3.9 00:52:36 10° N 00:56:52 48° ENE 01:01:03 10° SSE
Meteor 1-20 Rocket 4.2 00:51:16 10° N 00:56:52 77° E 01:02:20 10° SSE
Cosmos 1437 3.6 00:54:35 10° SSE 00:56:56 24° E 00:59:18 10° NE
Cosmos 1844 Rocket 4.1 00:52:52 10° SW 00:58:08 42° WNW 01:03:27 10° NNE
IRS-1A Rocket 4.4 00:53:12 10° SSE 00:58:57 77° ENE 01:04:52 10° NNW
Cosmos 2278 Rocket 2.8 00:54:37 10° S 00:59:41 35° ESE 01:04:47 10° NE
Cosmos 1782 3.1 00:56:28 10° SSE 01:00:17 45° E 01:04:06 10° NNE
SJ 16-02 2.6 01:00:00 10° SSE 01:03:21 22° E 01:06:44 10° NE
Sich 1 3.2 01:00:35 10° N 01:04:57 79° W 01:09:19 10° S
Cosmos 1812 4.0 01:02:33 12° SE 01:05:12 22° E 01:08:15 10° NE
Cosmos 2084 3.8 01:06:26 10° SW 01:10:32 68° NW 01:14:44 10° NNE
Meteor 2-17 Rocket 4.5 01:04:26 10° N 01:10:36 70° E 01:16:43 10° SSE
Landsat 7 4.4 01:06:59 12° SE 01:11:00 40° ENE 01:15:27 10° N
Intercosmos 24 4.1 01:07:34 10° SSW 01:11:12 65° W 01:14:49 10° N
SJ-6B 3.8 01:07:45 10° S 01:11:31 46° W 01:15:23 10° NNW
CZ-4C R/B 3.2 01:05:04 10° NNW 01:12:17 63° NE 01:19:33 14° SE
Cosmos 1354 Rocket 4.4 01:07:22 10° SSW 01:12:34 70° WNW 01:17:50 10° NNE
ATLAS 5 CENTAUR R/B 2.7 01:07:25 10° NW 01:13:09 66° WSW 01:19:47 10° SSE
Cosmos 1151 Rocket 3.0 01:12:03 10° S 01:16:22 73° E 01:20:46 10° NNE
USA 305 3.9 01:14:02 10° NW 01:18:03 39° NNE 01:21:35 13° E
NOSS 3-3 (A) 4.1 01:14:49 10° SW 01:20:31 76° NW 01:27:01 10° NE
NOSS 3-3 (C) 4.1 01:14:56 10° SW 01:20:37 77° NW 01:27:08 10° NE
BREEZE-M R/B 4.2 01:23:29 10° WNW 01:25:43 23° NNW 01:27:48 10° NE
ATLAS 2AS CENTAUR R/B 4.1 01:19:47 10° NNW 01:26:10 30° NE 01:32:10 10° E
SPOT 1/Viking Rocket 4.1 01:22:53 17° SE 01:26:33 42° ENE 01:31:25 10° N
IGS 5A 3.4 01:27:13 17° SSE 01:30:23 70° ENE 01:34:32 10° N
Cosmos 1709 Rocket 4.0 01:24:18 10° N 01:30:27 89° W 01:36:34 10° S
BREEZE M DEB (TANK) 3.8 01:26:49 10° WNW 01:31:30 30° N 01:33:44 10° ENE
Cosmos 1833 Rocket 2.8 01:30:30 10° NNW 01:36:09 66° ENE 01:39:57 21° SE
USA 306 3.5 01:33:27 10° NW 01:37:37 50° NNE 01:40:20 20° E
Cosmos 1500 3.0 01:35:46 10° N 01:39:30 74° E 01:41:40 24° SSE
CZ-2C R/B 3.7 01:36:19 10° NNE 01:40:48 62° ESE 01:44:53 13° S
SPOT 3 Rocket 3.5 01:37:38 16° SSE 01:41:52 89° SW 01:47:03 10° NNW
SWARM A 4.5 01:39:00 10° N 01:42:14 49° E 01:43:24 32° SE
Cosmos 773 Rocket 4.2 01:37:46 10° NNW 01:43:03 72° WSW 01:47:07 17° S
Akebono 3.7 01:42:25 10° NNW 01:44:32 78° WSW 01:44:48 62° S
Cosmos 2228 Rocket 4.2 01:43:57 24° ESE 01:45:09 27° E 01:48:55 10° NNE
Resurs 01 Rocket 1.8 01:41:40 15° S 01:45:17 70° WSW 01:49:44 10° NNW
Cosmos 1538 Rocket 4.1 01:41:47 10° NNW 01:47:08 67° ENE 01:50:14 25° SE
GPS 2-04 Rocket1 3.7 01:44:49 10° WSW 01:48:27 30° S 01:49:13 28° SSE
Meteor 1-5 Rocket 4.1 01:43:42 10° N 01:49:03 66° ENE 01:52:15 24° SSE
Spot 2 Rocket 3.8 01:47:58 25° SE 01:50:40 50° ENE 01:55:33 10° N
ERS-1 Rocket 3.8 01:49:56 23° ESE 01:52:12 35° ENE 01:56:44 10° N
CRYOSAT 2 4.4 01:49:11 17° S 01:53:00 86° W 01:57:55 10° N
X-37B 2.1 01:51:16 10° W 01:53:54 23° SSW 01:54:18 23° SSW
deb Kosmos-1763 3.9 01:50:57 10° NNW 01:54:29 69° ENE 01:55:36 40° SE
Cosmos 1515 Rocket 3.5 01:53:19 16° S 01:56:49 88° E 02:01:13 10° N
Delta 2 Rocket 4.3 01:57:48 10° WSW 02:02:20 34° S 02:03:03 32° SSE
Cosmos 1633 Rocket 4.4 02:00:04 10° NNW 02:04:07 37° W 02:07:58 11° SSW
Cosmos 1869 Rocket 4.4 02:00:24 10° N 02:04:20 33° ENE 02:05:16 30° ESE
Meteor 1-10 Rocket 4.2 02:00:51 20° S 02:04:44 69° E 02:10:22 10° NNE
JB-3 4.4 02:00:57 10° NNE 02:04:45 52° E 02:05:36 42° SE
USA 307 2.9 02:00:58 10° NW 02:05:16 73° NE 02:06:53 37° ESE
Cosmos 1271 Rocket 2.7 02:11:53 35° S 02:13:31 85° ESE 02:17:32 10° N
Terra 2.5 02:17:08 33° ESE 02:18:26 41° ENE 02:22:53 10° N
Cosmos 1470 Rocket 4.5 02:14:28 10° NNW 02:18:46 46° W 02:21:26 21° SSW
USA 308 2.8 02:14:41 10° NW 02:19:00 90° SSW 02:20:06 50° SE
Cosmos 2082 Rocket 2.1 02:15:19 10° NNW 02:20:58 77° ENE 02:23:13 38° SE
H-2A R/B 4.1 02:17:35 10° NNE 02:21:18 36° E 02:21:18 36° E
CARTOSAT-1 3.5 02:21:09 45° SSE 02:22:28 88° ENE 02:26:48 10° NNW
CREW DRAGON DEMO-1 DEB 4.2 02:26:12 10° WNW 02:27:46 30° WNW 02:27:46 30° WNW
ARIANE 5 R/B 2.7 02:31:08 43° SSW 02:32:27 67° WSW 02:36:46 10° NNW
Cosmos 1933 Rocket 4.2 02:28:36 10° NNW 02:32:47 49° W 02:34:30 31° SSW
COSMOS 2406 4.0 02:28:51 10° NW 02:34:11 43° WSW 02:36:56 25° SSW
SPOT 5 3.0 02:33:36 44° SSE 02:35:18 85° ENE 02:40:37 10° NNW
Cosmos 1898 Rocket 3.6 02:34:06 45° SSE 02:35:22 57° ESE 02:40:35 10° NNE
Cosmos 1943 Rocket 2.5 02:39:12 42° ESE 02:39:38 42° ESE 02:44:53 10° NE
Cosmos 923 Rocket 3.9 02:34:30 10° NNW 02:39:49 84° ENE 02:41:15 50° SSE
Cosmos 990 Rocket 3.9 02:39:27 38° S 02:41:28 81° ESE 02:46:45 10° NNE
SJ 16-02 2.9 02:37:37 10° SW 02:41:41 35° WNW 02:45:48 10° N
DNEPR-1 R/B 4.2 02:41:13 40° S 02:43:00 56° ESE 02:48:05 10° NE
Cosmos 2278 Rocket 3.7 02:38:34 10° WSW 02:43:44 36° WNW 02:48:55 10° N
Cosmos 1666 3.9 02:41:16 10° NNW 02:44:38 33° W 02:45:30 29° WSW
Iridium 4 Rocket 4.3 02:42:49 23° SSW 02:46:26 57° W 02:52:16 10° N
Meteor 2-12 Rocket 4.4 02:42:48 10° N 02:48:53 78° W 02:51:13 40° S
Cosmos 2369 Rocket 3.4 02:51:16 26° E 02:51:16 26° E 02:55:04 10° NE
Cosmos 1733 Rocket 4.0 02:47:57 10° N 02:51:43 34° ENE 02:51:43 34° ENE
Meteor 1-27 Rocket 3.9 02:52:26 32° SSW 02:55:16 74° W 03:01:14 10° N
USA 305 3.7 02:54:01 10° WNW 02:57:39 39° WSW 02:57:39 39° WSW
SL-8 Rocket 4.5 02:53:08 10° N 02:59:12 46° ENE 03:00:36 40° ESE
CZ-4C R/B 4.0 02:54:00 10° NW 03:00:47 36° WSW 03:04:45 24° SSW
Cosmos 1544 3.5 02:59:03 10° N 03:02:04 59° NNW 03:02:04 59° NNW
Cosmos 2084 Rocket 4.0 02:59:29 10° NNW 03:03:39 50° NE 03:03:54 49° ENE
Okean 1 4.3 03:05:03 37° NE 03:05:03 37° NE 03:07:52 10° NNE
NOSS 3-4 (A) 4.1 02:57:23 10° NW 03:04:23 59° WSW 03:07:09 39° S
NOSS 3-4 (C) 4.1 02:57:30 10° NW 03:04:30 60° WSW 03:07:15 39° S
Cosmos 1340 Rocket 2.9 03:01:41 10° N 03:05:30 77° NNW 03:05:30 77° NNW
Cosmos 1238 Rocket 3.8 03:00:33 10° N 03:06:21 52° ENE 03:06:56 50° E
Cosmos 1743 3.1 03:03:13 10° N 03:06:30 60° NNE 03:06:30 60° NNE
Meteor 1-19 Rocket 4.3 03:12:03 52° E 03:12:09 52° E 03:17:23 10° NNE
Cosmos 2154 Rocket 4.5 03:10:05 10° NNW 03:16:13 54° W 03:18:30 36° SSW
USA 306 4.5 03:13:43 10° WNW 03:16:24 26° WSW 03:16:24 26° WSW
ATLAS 2AS CENTAUR R/B 2.7 03:10:37 10° NW 03:17:56 78° WSW 03:19:41 53° SSE
Gbstr 26 Del rocket 4.4 03:10:43 10° NW 03:18:08 64° NNE 03:20:56 35° E
Cosmos 2112 Rocket 4.0 03:13:01 10° NNW 03:18:22 71° WSW 03:19:01 63° SSW
Cosmos 1536 4.1 03:21:00 10° NNW 03:24:37 33° W 03:24:37 33° W
Cosmos 962 Rocket 4.4 03:20:03 10° N 03:26:10 78° W 03:27:28 57° SSW
Meteor 2-4 Rocket 4.2 03:30:52 44° E 03:30:52 44° E 03:36:04 10° NNE
ERS-1 Rocket 4.3 03:29:55 26° WSW 03:31:00 28° W 03:35:21 10° NW
Cosmos 1937 Rocket 3.8 03:33:12 48° WSW 03:34:17 60° WNW 03:39:26 10° NNE
Cosmos 1862 Rocket 3.9 03:35:48 63° N 03:35:48 63° N 03:39:28 10° N
Cosmos 1975 3.9 03:37:07 10° N 03:39:56 41° NNE 03:39:56 41° NNE
Okean 1-7 4.5 03:46:28 29° NE 03:46:28 29° NE 03:49:00 10° NNE
RESURS DK-1 3.9 03:43:47 10° N 03:47:03 30° NE 03:47:03 30° NE
Cosmos 2181 Rocket 4.0 03:53:39 58° SW 03:54:45 70° W 04:00:53 10° N
Terra 3.6 03:56:01 22° W 03:56:19 22° W 04:00:00 10° NW
Milstar 3 4.4 03:48:46 10° WSW 03:56:12 28° SW 03:56:12 28° SW
Cosmos 44 4.4 03:55:03 10° NW 03:59:24 36° W 03:59:24 36° W
Cosmos 1821 Rocket 4.4 03:53:55 10° N 04:00:08 49° ENE 04:00:53 47° E
Cosmos 2366 rocket 3.9 03:54:09 10° N 04:00:20 76° W 04:01:02 68° SSW
Cosmos 2082 Rocket 4.2 04:01:16 10° WNW 04:04:18 15° W 04:05:04 14° WSW
Cosmos 1461 4.2 04:04:49 38° WNW 04:05:35 41° NW 04:10:00 10° NNE
Cosmos 2298 Rocket 4.2 04:10:57 64° ENE 04:10:57 64° ENE 04:15:36 10° NNE
Cosmos 1607 3.9 04:12:57 72° SSW 04:13:43 90° SSE 04:20:16 10° NNE
ALOS 2 3.3 04:14:52 50° NNE 04:14:52 50° NNE 04:18:17 10° N
Cosmos 1818 4.3 04:09:41 10° NW 04:14:10 42° W 04:14:10 42° W
Centaur D AC-29 4.4 03:55:35 10° WSW 04:19:10 30° SSW 04:19:10 30° SSW
Meteor 1-12 Rocket 4.5 04:15:08 10° N 04:20:55 57° ENE 04:21:04 57° E
SeaSat 1 4.2 04:18:57 10° NE 04:21:16 21° ENE 04:21:16 21° ENE
Cosmos 1943 Rocket 3.7 04:20:39 20° W 04:23:29 30° NW 04:28:24 10° N
ATLAS CENTAUR R/B 3.3 04:30:12 23° NNE 04:30:12 23° NNE 04:31:48 10° NNE
Cosmos 2369 Rocket 3.0 04:33:01 39° W 04:34:09 45° WNW 04:39:35 10° NNE
Cosmos 1656 Rocket 3.8 04:38:22 63° WNW 04:38:30 63° WNW 04:44:00 10° NNE
Cosmos 2150 Rocket 4.2 04:38:57 69° NW 04:38:57 69° NW 04:44:02 10° NNE
Cosmos 494 Rocket 4.1 04:35:38 10° NNW 04:40:13 69° N 04:40:13 69° N
Nadezhda 3 Rocket 3.8 04:41:02 79° SW 04:41:23 84° W 04:47:38 10° N
BREEZE-M DEB (TANK) 3.7 04:31:34 10° WNW 04:43:37 88° SSW 04:43:38 88° S
Lacrosse 5 3.1 04:48:12 32° ENE 04:48:12 32° ENE 04:51:05 10° NE
Meteor 1-15 Rocket 4.4 04:47:08 10° N 04:52:50 65° ENE 04:52:56 65° E
Cosmos 1125 Rocket 3.8 04:54:49 62° NW 04:54:49 62° NW 04:59:43 10° NNE
Okean 2 Rocket 4.1 04:53:19 10° N 04:56:36 41° NE 04:56:36 41° NE
USA 215 3.9 04:51:52 11° ESE 04:57:57 51° NNE 05:04:15 10° NW
Cosmos 1605 Rocket 4.3 04:59:52 10° N 05:06:02 56° E 05:06:53 52° ESE
Cosmos 1066 Rocket 4.2 05:08:11 72° WNW 05:08:11 72° WNW 05:13:49 10° N
EO 1 Delta rocket 4.1 05:18:58 82° ENE 05:18:58 82° ENE 05:24:56 10° N
Cosmos 2227 Rocket 4.2 05:20:03 10° N 05:24:29 23° NE 05:28:53 10° ESE
Cosmos 2297 Rocket 3.8 05:22:26 10° N 05:27:22 30° NE 05:30:43 17° ESE
Cosmos 1400 Rocket 4.2 05:24:21 10° N 05:27:14 38° NNE 05:27:14 38° NNE
ISS -0.8 05:30:09 13° NNW 05:31:48 18° N 05:34:10 10° NE
USA 81 4.0 05:26:36 10° N 05:31:39 81° NNE 05:31:39 81° NNE
Cosmos 1378 Rocket 4.4 05:34:24 47° NE 05:34:24 47° NE 05:37:39 10° NNE
Meteor 1-23 Rocket 4.5 05:35:25 59° W 05:35:38 59° WNW 05:41:25 10° N
NOSS 2-1 (C) 4.2 05:30:35 10° NW 05:35:46 82° SW 05:36:00 80° SSW
Okean 2 4.4 05:41:39 43° NE 05:41:39 43° NE 05:44:43 10° NNE
Cosmos 1934 Rocket 4.3 05:36:02 10° NNW 05:41:53 49° W 05:41:59 49° W
NOSS 2-1 (D) 4.3 05:37:25 10° NW 05:42:37 74° WSW 05:42:37 74° WSW
Cosmos 1656 4.3 05:45:16 41° ESE 05:45:16 41° ESE 05:50:21 10° NE
Cosmos 1269 Rocket 4.3 05:42:47 10° NNW 05:47:17 55° WNW 05:47:17 55° WNW
Cosmos 44 Rocket 4.5 05:44:16 10° NW 05:47:33 34° WNW 05:47:33 34° WNW
Cosmos 2344 4.5 05:43:06 10° NW 05:52:45 63° WSW 05:58:24 37° S
Cosmos 1707 4.0 05:58:22 39° NE 05:58:22 39° NE 06:01:02 10° NNE
Okean 1 Rocket 3.5 05:53:49 10° N 05:57:25 59° N 05:57:25 59° N
SeaSat 1 3.1 05:55:58 10° NNE 06:00:41 45° WNW 06:01:03 44° WNW
COSMOS 2455 2.9 05:56:29 10° NNW 06:02:32 74° ENE 06:04:24 45° SE
Cosmos 1674 Rocket 4.3 06:03:16 46° NW 06:03:16 46° NW 06:06:55 10° N
CZ-4 R/B 3.8 06:02:09 10° N 06:06:47 77° NW 06:06:47 77° NW
ATLAS CENTAUR R/B 4.1 06:07:08 10° NW 06:07:38 10° NW 06:08:08 10° NNW
Meteor 2-20 4.4 06:07:18 63° SW 06:08:07 70° W 06:14:18 10° N
Cosmos 371 Rocket 3.6 06:10:20 55° ESE 06:10:20 55° ESE 06:15:05 10° NNE
Cosmos 1727 Rocket 3.9 06:09:20 62° SW 06:10:21 75° W 06:16:45 10° N
Helios 1B rocket 3.5 06:07:54 10° NNE 06:11:27 37° E 06:11:27 37° E
Cosmos 2219 3.7 06:06:29 10° NNW 06:12:07 56° ENE 06:14:52 29° SE
SL-16 R/B 2.9 06:15:31 31° SE 06:18:31 61° ENE 06:24:41 10° N
Meteor 2-10 4.3 06:17:49 10° NNW 06:22:47 52° W 06:22:47 52° W
ADEOS II 3.5 06:19:36 10° NE 06:24:09 29° E 06:25:56 24° SE
Lacrosse 4 Rocket 2.8 06:26:20 30° ESE 06:26:20 30° ESE 06:30:13 10° NE
Cosmos 1953 3.1 06:24:43 10° N 06:28:33 44° ENE 06:28:48 43° E
USA 276 4.2 06:29:14 28° N 06:29:14 28° N 06:31:30 10° NE
Lacrosse 5 3.1 06:27:22 26° WNW 06:29:17 35° NNW 06:33:58 10° NE
NPP 3.9 06:25:57 10° NNE 06:31:17 59° E 06:32:30 47° SSE
AQUA 4.5 06:26:54 10° NNE 06:31:29 45° E 06:32:19 41° SE
CZ-2D R/B 2.1 06:26:42 10° NNE 06:32:07 73° ESE 06:33:07 57° SSE
Cosmos 1932 4.5 06:30:50 51° SW 06:32:30 75° NW 06:38:52 10° NNE
Cosmos 1455 Rocket 3.1 06:31:50 10° N 06:36:10 67° E 06:36:33 63° ESE
Resurs 1-4 Rocket 2.0 06:32:58 10° NNE 06:38:16 85° ESE 06:39:15 60° S
USA 215 3.3 06:39:06 42° S 06:40:55 55° SW 06:47:20 10° NW
Cosmos 1725 Rocket 4.3 06:35:21 10° N 06:41:35 64° E 06:44:56 28° SSE
Helios 1A 4.5 06:42:57 25° WNW 06:42:57 25° WNW 06:45:18 10° NW
MOZ.5/SAFIR/RUBIN 5/SL-8 4.1 06:42:26 49° W 06:42:26 49° W 06:46:34 10° NNW
Cosmos 1697 Rocket 2.8 06:42:23 49° SSE 06:43:43 65° ESE 06:49:17 10° NNE
Cosmos 407 Rocket 4.4 06:39:43 10° N 06:44:54 48° ENE 06:49:35 12° SE
Meteor 1-29 4.0 06:41:41 10° NNE 06:44:36 40° E 06:44:36 40° E
Cosmos 1459 Rocket 3.9 06:39:39 10° NNW 06:45:52 70° W 06:47:34 48° SSW
Meteor 1-16 Rocket 4.3 06:41:00 10° N 06:46:57 78° E 06:49:29 36° SSE
MINOTAUR 4 R/B 4.3 06:49:56 64° ENE 06:49:56 64° ENE 06:53:27 10° N
Cosmos 1726 4.1 06:47:08 10° NNW 06:48:44 20° NW 06:48:44 20° NW
Cosmos 1674 2.7 06:50:39 77° NNW 06:50:39 77° NNW 06:54:14 10° N
GP-B 4.5 06:47:13 10° NNE 06:51:17 34° E 06:53:20 23° SE
USA 281 3.2 06:49:16 41° S 06:51:30 62° WSW 06:58:02 10° NNW
CZ-3B R/B 4.3 06:25:34 10° SW 06:53:04 68° NW 06:58:28 10° NE
Cosmos 2016 Rocket 3.9 06:49:29 10° N 06:55:46 86° W 06:58:27 37° S
Cosmos 1980 Rocket 3.0 06:54:10 29° SSE 06:56:23 42° ESE 07:01:43 10° NE
Meteor 2-11 Rocket 4.4 06:50:30 10° NNW 06:56:39 74° W 06:58:54 41° S
SL-14 R/B 4.3 06:59:18 34° SE 07:00:15 40° E 07:03:59 10° NNE
Cosmos 2173 Rocket 4.2 06:56:06 10° NNW 07:02:03 51° W 07:03:45 40° SW
Cosmos 2061 Rocket 4.0 06:59:15 10° N 07:05:36 78° W 07:08:42 33° S
Timation 2 Rocket 3.8 07:00:01 10° NNW 07:05:54 61° WSW 07:08:18 36° S
Cosmos 1626 2.0 07:07:59 76° SSE 07:08:12 82° E 07:11:55 10° N
Cosmos 1975 Rocket 3.6 07:08:32 39° W 07:08:47 40° WNW 07:12:52 10° N
Cosmos 2227 Rocket 2.2 07:03:24 10° NNW 07:08:57 61° WSW 07:10:56 38° S
TSX-5 3.7 07:05:31 10° NW 07:08:44 61° W 07:08:44 61° W
ISS -1.7 07:06:21 10° NW 07:09:22 29° NNE 07:12:23 10° E
Cosmos 1315 Rocket 4.0 07:07:37 10° NNW 07:10:25 29° WNW 07:10:25 29° WNW
Cosmos 2297 Rocket 2.5 07:06:13 10° NW 07:11:33 44° WSW 07:12:27 40° SW
UNK 3.9 07:11:24 48° WSW 07:11:48 49° W 07:16:16 10° NNW
Cosmos 2285 Rocket 4.4 07:10:17 28° S 07:13:42 61° ESE 07:20:02 10° NNE
Cosmos 304 Rocket 3.8 07:13:22 48° SW 07:14:32 67° WNW 07:19:21 10° NNE
Cosmos 2056 Rocket 3.6 07:13:38 36° S 07:15:38 66° ESE 07:20:44 10° NNE
DELTA 2 DEB (DPAF) 4.2 07:14:05 28° SSE 07:16:22 77° ENE 07:20:50 10° N
Cosmos 2369 3.7 07:14:44 39° SSW 07:17:01 89° ESE 07:22:48 10° NNE
ARGOS Delta rocket 3.8 07:13:46 10° N 07:18:26 71° WNW 07:20:01 42° SSW
Cosmos 2278 4.1 07:15:40 29° S 07:18:27 57° ESE 07:24:02 10° NNE
SL-19 R/B 4.3 07:15:01 10° N 07:20:30 62° WNW 07:22:32 37° SW
Cosmos 1023 Rocket 4.4 07:16:23 10° NNW 07:21:40 89° ENE 07:25:58 16° SSE
Cosmos 1300 3.5 07:18:51 10° N 07:22:35 49° E 07:24:55 20° SSE
Cosmos 2082 3.6 07:18:56 10° NNW 07:24:40 86° WSW 07:30:23 10° SSE
Cosmos 1371 Rocket 3.9 07:26:14 36° SSW 07:28:26 85° WNW 07:33:40 10° NNE
OAO 2 Rocket 4.2 07:29:24 31° S 07:30:10 32° S 07:34:52 10° ESE
SL-16 R/B 4.1 07:27:41 10° SSE 07:32:00 23° E 07:36:21 10° NE
Cosmos 1025 Rocket 3.5 07:31:57 37° WSW 07:32:55 43° WNW 07:37:06 10° N
Cosmos 2123 Rocket 4.4 07:33:54 29° SW 07:36:33 44° WNW 07:42:29 10° N
IRS-1D 3.6 07:32:39 10° N 07:38:01 77° WNW 07:40:55 28° SSW
Cosmos 1140 Rocket 3.4 07:34:12 10° NNW 07:39:23 66° WSW 07:43:34 16° S
Iridium 2 3.6 07:42:04 38° SSW 07:43:22 70° W 07:47:11 10° N
IDEFIX/ARIANE 42P 2.6 07:39:52 10° NNE 07:45:10 79° ESE 07:48:54 20° S
Helios 1B rocket 4.1 07:43:47 10° NNW 07:46:43 19° WNW 07:47:45 18° W
COSMOS 2455 4.3 07:43:51 10° WNW 07:47:28 18° W 07:47:28 18° W
Cosmos 1340 2.5 07:49:44 30° S 07:51:32 89° W 07:55:18 10° N
Meteor 1-28 Rocket 3.4 07:53:43 31° SSW 07:55:06 48° W 07:58:43 10° NNW
Cosmos 2219 4.4 07:51:33 10° NW 07:55:49 22° W 07:56:43 21° WSW
Meteor 2-10 Rocket 4.1 07:52:04 10° N 07:57:45 64° ENE 08:03:12 10° SSE
Cosmos 2322 Rocket 3.8 07:54:22 10° SSE 07:59:12 30° ESE 08:04:04 10° NE
SL-16 R/B 3.7 08:00:36 19° WSW 08:02:31 22° W 08:07:17 10° NW
ADEOS II 2.9 07:59:04 10° N 08:03:52 37° WNW 08:06:52 20° WSW
Cosmos 2263 Rocket 2.6 07:58:34 10° NNW 08:04:13 68° ENE 08:09:52 10° SSE
Cosmos 1953 4.3 08:02:33 10° NW 08:04:27 13° W 08:04:27 13° W
Cosmos 1190 Rocket 4.3 07:59:35 10° NNW 08:04:34 46° WSW 08:09:33 10° S
NOSS 3-2 (A) 4.3 08:00:10 12° S 08:04:54 41° ESE 08:10:36 10° NE
ARIANE 5 R/B 2.7 07:59:45 10° NNE 08:04:54 71° ESE 08:09:44 11° S
Lacrosse 4 Rocket 2.7 08:02:37 19° W 08:04:57 30° NW 08:08:53 10° N
IRS-P3 4.1 07:59:39 10° NNE 08:05:02 90° E 08:09:38 14° SSW
Meteor 1-24 Rocket 3.6 08:01:32 18° SSW 08:05:47 73° W 08:11:13 10° N
Cosmos 1726 Rocket 4.1 08:06:19 10° N 08:10:40 60° E 08:15:02 10° SSE
Cosmos 1606 Rocket 3.7 08:06:20 10° N 08:10:46 78° E 08:15:11 10° SSE
Cosmos 1420 Rocket 4.1 08:07:40 20° SW 08:11:15 64° WNW 08:16:25 10° NNE
CZ-2D R/B 4.0 08:08:12 10° NNW 08:11:30 17° WNW 08:14:26 11° W
Cosmos 2228 2.9 08:08:29 10° N 08:12:47 83° W 08:17:05 10° S
Lacrosse 5 4.3 08:10:18 10° NW 08:13:36 17° N 08:16:53 10° NNE
CZ-4B R/B 3.5 08:10:33 10° NNE 08:15:35 87° WNW 08:20:31 11° SSW
Resurs 1-4 Rocket 4.1 08:14:43 10° NNW 08:17:21 14° WNW 08:20:00 10° W
ADEOS Rocket 3.9 08:13:03 10° SSW 08:20:06 46° W 08:27:32 10° NNW
Cosmos 2360 Rocket 4.1 08:17:24 10° SSE 08:21:59 26° ESE 08:26:36 10° NE
Cosmos 1513 Rocket 4.4 08:17:50 10° N 08:24:03 81° W 08:30:08 10° S
Meteor 2-5 Rocket 4.3 08:21:35 16° SW 08:25:46 40° WNW 08:31:03 10° N
Cosmos 1697 Rocket 4.3 08:24:06 11° W 08:28:10 21° NW 08:32:25 10° N
Cosmos 676 Rocket 4.3 08:23:25 10° NNW 08:28:28 47° WSW 08:33:30 10° S
Cosmos 1464 Rocket 4.0 08:23:18 10° N 08:29:29 80° W 08:35:42 10° S
Atlas Centaur 2 4.1 08:28:29 11° SSW 08:33:27 21° SSE 08:38:08 10° ESE
Cosmos 405 3.8 08:31:42 10° NNW 08:34:52 32° W 08:38:00 10° SSW
Cosmos 292 Rocket 3.9 08:32:03 12° SSW 08:36:28 62° WNW 08:41:18 10° NNE
Aureole 2 Rocket 2.5 08:35:03 10° NW 08:37:29 31° WSW 08:39:55 10° S
Cosmos 2034 Rocket 4.1 08:33:20 10° N 08:39:43 87° E 08:46:01 10° S
Cosmos 1980 Rocket 3.3 08:35:56 12° WSW 08:40:31 31° NW 08:45:30 10° N
CENTAUR R/B 3.1 08:35:15 10° SSW 08:40:45 52° ESE 08:47:16 10° NE
Cosmos 2227 4.2 08:39:59 10° NNW 08:45:36 64° WSW 08:51:08 10° S
ISS -3.6 08:43:01 10° WNW 08:46:20 52° SW 08:49:37 10° SE
PAYLOAD A 3.8 08:44:30 10° NNE 08:49:15 89° E 08:53:56 10° SSW
Cosmos 1331 Rocket 4.2 08:49:19 10° S 08:54:26 74° ESE 08:59:37 10° NNE
Cosmos 1452 Rocket 3.9 08:50:12 10° SW 08:55:19 49° WNW 09:00:27 10° N
Aureole 1 Rocket 2.8 08:52:04 10° NNW 08:55:30 82° ENE 08:59:50 10° SSE
CZ-2D R/B 4.1 08:52:19 10° N 08:56:33 45° WNW 09:00:46 10° SW
Cosmos 1184 Rocket 4.0 08:56:44 10° SSE 08:59:47 43° E 09:02:51 10° NNE
FENGYUN 3A 4.0 08:57:14 10° NNE 09:02:37 69° ESE 09:07:58 10° S
Spot 4 Rocket 4.3 09:00:42 10° N 09:05:42 53° WNW 09:10:40 10° SW
CZ-2C R/B 2.6 09:00:38 10° N 09:05:46 71° WNW 09:10:56 10° SSW
